Location: Baggettsville
(36.4767°N, 86.7303°W)
Time: 00:00:44
(UTC+00:00)

ERS-2 - Pass Details

Date: 29 October 2020
Orbit: 493 x 497 km, 98.6° (Epoch: 28 November)

Event Time Altitude Azimuth Distance (km) Brightness Sun altitude
Rises 23:32:11 0° 7° (N) 2,581 5.6 -8.5°
Reaches altitude 10° 23:34:18 10° 2° (N) 1,695 4.7 -8.9°
Maximum altitude 23:37:50 52° 286° (WNW) 624 3.0 -9.6°
Drops below altitude 10° 23:41:22 10° 210° (SSW) 1,685 5.4 -10.3°
Sets 23:43:27 0° 205° (SSW) 2,563 6.2 -10.7°
